Погода в Иванцеве

Россия / Ивановская область     57°06′13″N   40°53′56″E
темп.,
°C
ветер,
м/с
пор.,
м/с
влажн.,
%
обл.,
%
осадки,
мм/ч
давл.,
гПа
погр.,
м
24 октября, вс
вс2400:00+4з51194100 0.6 1006741
03:00+3зюз498997 0.7 1007386
06:00+3зюз3988100 0.0 1008530
09:00+3зюз3893100 0.0 1008649
12:00+4з4894100 0.2 1009678
15:00+3зсз51096100 1.1 1010627
18:00+1ссз7129098 0.8 1014926
21:000ссз6128026 0.8 1017905
25 октября, пн
пн2500:00−1ссз612855 0.0 1020595
03:00−2ссз4118715 0.0 1023574
06:00−2сз39885 0.0 1025345
09:000сз367970 0.0 1026360
12:00+2з3466100 0.0 1027812
15:00+2зюз4661100 0.0 1026817
18:00+1юз41067100 0.0 1025519
21:00+1юз6137071 0.0 1023678
26 октября, вт
вт2600:00+1юз61376100 0.0 1022540
03:00+2зюз51380100 0.0 1021575
06:00+1зюз51386100 0.0 1020562
09:00+1зюз5128588 0.0 1020427
12:00+4зюз51070100 0.0 1019540
15:00+5зюз41171100 0.0 1018581
18:00+3юз51281100 0.0 1018404
21:00+2юз41285100 0.0 1018356
27 октября, ср
ср2700:00+1юз41287100 0.0 1018348
03:00+1юз41189100 0.0 1017329
06:000юз4128977 0.0 1016318
09:00+2юз5128293 0.0 1016433
12:00+5юз51170100 0.0 1015571
15:00+6юз61268100 0.0 1013671
18:00+5юз51270100 0.0 1013639
21:00+3з51095100 0.5 1013746
28 октября, чт
чт2800:00+4з41094100 0.8 1013524
03:00+5зюз41187100 0.8 1014420
06:00+5з51285100 0.0 1015563
09:00+5з51183100 0.0 1016615
12:00+7з5107339 0.0 1018900
15:00+6з4878100 0.1 1019572
18:00+5з2486100 0.0 1020131
21:00+5всв3589100 0.0 1021316